Location: Buchelay
(48.9793°N, 1.6703°E)
Time: 00:56:31
(UTC+00:00)

Daily predictions for brighter satellites

Satellite Brightness Start Highest point End
(mag) Time Altitude Azimuth Time Altitude Azimuth Time Altitude Azimuth
SL-16 R/B 4.1 03:46:48 22° NNE 03:47:36 22° NE 03:51:59 10° E
Cosmos 2082 Rocket 3.8 03:49:32 26° SE 03:51:04 30° ESE 03:55:53 10° NE
COSMOS 2455 3.5 03:58:09 51° ENE 03:58:09 51° ENE 04:03:22 10° SE
ATLAS 3B R/B 4.3 03:59:03 27° N 03:59:25 27° N 04:05:54 10° NE
Cosmos 1980 Rocket 3.4 04:14:14 32° SSE 04:14:14 32° SSE 04:17:05 10° SSE
Cosmos 2369 4.0 04:16:15 62° ENE 04:16:15 62° ENE 04:21:33 10° SE
COSMO-SKYMED 1 4.4 04:18:39 10° ESE 04:22:03 25° ENE 04:22:50 24° NE
Aureole 1 Rocket 4.3 04:20:44 53° N 04:22:38 80° ENE 04:30:10 10° SSE
Cosmos 1937 Rocket 4.3 04:25:55 42° NNE 04:26:46 45° ENE 04:31:39 10° SE
Cosmos 372 Rocket 4.2 04:33:38 62° SE 04:33:38 62° SE 04:37:52 10° SSE
Cosmos 2333 Rocket 3.6 04:33:56 22° N 04:36:48 34° NE 04:42:01 10° ESE
Cosmos 1606 Rocket 4.0 04:43:12 62° E 04:43:12 62° E 04:47:29 10° SSE
Cosmos 2360 Rocket 3.9 04:40:11 17° N 04:43:27 28° NE 04:48:14 10° ESE
Cosmos 2142 Rocket 4.3 04:47:06 53° NW 04:48:30 70° W 04:54:39 10° S
USA 234 3.8 04:49:52 10° ENE 04:56:01 44° N 04:57:47 37° NW
Helios 1A Rocket 3.7 04:52:59 10° SE 04:55:47 40° E 04:55:47 40° E
SeaSat 1 4.2 04:56:38 10° NNE 04:58:20 19° N 04:58:20 19° N
SL-4 R/B 3.0 05:03:15 32° ENE 05:03:15 32° ENE 05:05:13 10° E
Cosmos 2219 Rocket 4.0 04:58:08 12° N 05:02:14 25° NE 05:06:49 10° E
ATLAS 5 CENTAUR R/B 3.7 05:05:56 11° NNE 05:05:56 11° NNE 05:06:06 10° NNE
Cosmos 2322 Rocket 3.3 05:01:43 17° N 05:05:42 40° NE 05:11:01 10° ESE
Cosmos 1726 Rocket 3.5 05:08:07 41° N 05:09:35 83° ENE 05:13:51 10° S
Meteor 2-3 Rocket 4.1 05:05:18 10° S 05:10:58 67° E 05:16:38 10° NNE
Cosmos 489 Rocket 4.5 05:08:39 10° SSW 05:14:57 84° ESE 05:21:16 10° NNE
CZ-4 R/B 3.7 05:10:42 10° NNE 05:15:23 84° ESE 05:20:00 10° SSW
Nadezhda 4 Rocket 3.9 05:09:41 10° SSW 05:16:00 76° W 05:22:18 10° N
Cosmos 1428 Rocket 4.4 05:10:53 10° S 05:17:06 87° W 05:23:25 10° N
NOSS 2-1 (D) 3.7 05:17:47 46° SSW 05:17:47 46° SSW 05:21:50 10° SSE
Cosmos 2237 4.1 05:15:45 39° NW 05:17:50 67° WSW 05:23:27 10° SSE
CZ-2C R/B 4.3 05:14:53 10° N 05:16:11 17° NNW 05:16:11 17° NNW
USA 59 Rocket 0.5 05:20:26 41° SW 05:20:26 41° SW 05:24:31 10° SSE
Cosmos 841 Rocket 3.4 05:17:41 10° SSW 05:22:56 82° WNW 05:28:13 10° NNE
COSMOS 2406 3.3 05:17:47 10° SSW 05:23:26 80° ESE 05:29:09 10° NNE
NOSS 2-1 (E) 3.4 05:25:12 51° SW 05:25:16 51° SW 05:29:43 10° SSE
NOSS 3-1 (C) 4.0 05:21:26 30° NW 05:25:24 69° SW 05:34:10 10° SSE
Cosmos 1833 Rocket 4.2 05:28:01 19° NNW 05:28:01 19° NNW 05:31:06 10° N
Cosmos 1892 Rocket 3.5 05:25:34 10° S 05:29:55 86° ESE 05:34:21 10° N
Cosmos 2195 Rocket 4.4 05:24:10 10° S 05:30:26 86° W 05:36:48 10° N
SL-16 R/B 2.1 05:28:40 22° NNW 05:32:27 87° WSW 05:38:07 10° SSE
Cosmos 2082 Rocket 2.3 05:31:29 22° WSW 05:34:53 51° NW 05:40:22 10° NNE
IRS-1D 3.5 05:37:39 10° N 05:42:30 52° WNW 05:47:23 10° SW
COSMOS 2455 3.5 05:41:19 28° WNW 05:43:14 35° WSW 05:48:35 10° S
Cosmos 1898 Rocket 4.1 05:42:42 30° WNW 05:43:53 34° WSW 05:48:34 10° SSW
NOSS 2-1 (C) 4.2 05:44:49 29° WSW 05:45:15 30° SW 05:49:19 10° S
Meteor 2-20 4.3 05:39:17 10° NNW 05:45:24 70° W 05:51:25 10° S
Orbus 7S? 3.2 05:47:32 35° NNW 05:48:11 44° NNE 05:50:48 10° ESE
Cosmos 405 Rocket 4.3 05:45:43 10° SSE 05:48:38 31° E 05:51:35 10° NNE
ATLAS 3B R/B 4.0 05:46:18 14° NW 05:52:29 37° NNE 05:59:31 10° E
Cosmos-2242 2.8 05:49:43 10° NNW 05:53:59 76° W 05:58:10 10° S
Cosmos 1980 Rocket 3.9 05:56:02 13° WSW 05:56:02 13° WSW 05:57:32 10° SW
Cosmos 2278 3.7 05:51:02 16° NW 05:55:32 69° WSW 06:01:08 10° SSE
COSMO-SKYMED 1 3.0 05:53:25 10° SSW 05:57:13 35° W 05:59:09 23° NW
Tiangong 0.6 06:00:35 10° SSW 06:00:45 10° SSW 06:00:56 10° SSW
Cosmos 2058 Rocket 3.1 05:56:44 10° NNW 06:01:08 60° W 06:05:27 10° S
Cosmos 1484 Rocket 2.3 05:57:46 10° N 06:01:11 73° WNW 06:04:33 10° SSW
Cosmos 1627 Rocket 4.4 05:56:56 10° SSW 06:02:58 63° WNW 06:09:06 10° N
Meteor 2-2 Rocket 4.2 05:58:45 10° NNW 06:04:23 65° W 06:10:04 10° S
Okean 1 3.0 06:03:40 12° NNW 06:06:53 59° W 06:10:23 10° S
Meteor 2-20 Rocket 4.2 06:01:51 10° NNW 06:07:35 65° W 06:13:13 10° S
Cosmos 1937 Rocket 4.3 06:06:02 20° WNW 06:08:24 28° W 06:12:42 10° SSW
Cosmos 220 Rocket 4.5 06:04:51 10° WSW 06:08:33 33° WNW 06:12:18 10° N
ARIANE 5 R/B 3.7 06:08:15 10° NNE 06:13:17 47° E 06:18:17 10° S
Cosmos 2285 Rocket 4.0 06:07:09 10° NNW 06:13:34 90° WSW 06:19:59 10° SSE
ATLAS 2AS CENTAUR R/B 4.4 06:08:39 10° S 06:14:59 37° ESE 06:21:10 10° NE
SL-08 ROCKET BODY 4.5 06:10:35 10° S 06:16:25 80° E 06:22:17 10° N
IRIDIUM 104 4.3 06:13:03 10° S 06:18:17 83° W 06:23:33 10° N
Cosmos 2333 Rocket 2.5 06:15:59 11° NW 06:21:20 51° WSW 06:26:51 10° S
SAR-Lupe-4 4.4 06:20:03 10° NNE 06:23:34 54° ESE 06:27:03 10° S
SMAP 3.2 06:19:52 10° NNE 06:24:33 81° ESE 06:29:13 10° SSW
IRIDIUM 114 4.3 06:22:14 10° S 06:27:26 70° W 06:32:39 10° N
Cosmos 2360 Rocket 2.2 06:22:19 10° NNW 06:27:54 65° WSW 06:33:26 10° SSE
Helios 1A Rocket 4.2 06:27:09 10° SW 06:28:58 14° W 06:29:20 14° W
Landsat 7 4.0 06:25:49 10° NNE 06:30:30 76° E 06:35:10 10° S
NOSS 3-1 (A) 4.3 06:25:10 11° NW 06:31:58 59° SW 06:40:38 10° SSE
Cosmos 2026 Rocket 4.4 06:27:04 10° SW 06:32:38 38° WNW 06:38:17 10° N
CBERS-1 4.0 06:28:10 10° N 06:33:13 60° WNW 06:38:12 10° SSW
IGS 5A 3.7 06:30:16 10° N 06:34:03 41° WNW 06:37:48 10° SW
Cosmos 1814 Rocket 4.0 06:28:53 10° SSW 06:34:07 80° WNW 06:39:28 10° NNE
BREEZE-M DEB (TANK) 2.6 06:34:37 14° W 06:35:58 35° SSW 06:38:23 10° SE
Cosmos 2237 Rocket 4.1 06:32:04 10° N 06:36:23 22° NE 06:40:42 10° E
IRIDIUM 103 4.4 06:31:29 10° SSW 06:36:37 59° W 06:41:48 10° N
USA 234 3.6 06:32:02 10° E 06:38:27 58° NNE 06:44:52 10° WNW
SL-4 R/B 1.3 06:36:58 13° WNW 06:39:48 84° SSW 06:42:59 10° ESE
Cosmos 1758 Rocket 3.6 06:36:06 10° SSW 06:40:30 64° WNW 06:44:54 10° N
Cosmos 1733 2.2 06:39:40 10° SW 06:41:20 28° WNW 06:43:01 10° NNW
Cosmos 1743 2.1 06:38:20 10° SSW 06:41:34 75° W 06:44:50 10° N
IRS-1C 4.4 06:37:08 10° NNE 06:42:30 77° ESE 06:47:49 10° SSW
Thor Agena Rocket 3.5 06:40:41 10° N 06:45:44 67° WNW 06:50:42 10° SSW
BREEZE-M DEB (TANK) 3.1 06:42:55 10° W 06:45:44 86° N 06:53:35 10° E
Cosmos 2219 Rocket 2.2 06:41:06 10° NNW 06:46:47 76° WSW 06:52:23 10° SSE
Cosmos 192 4.3 06:42:10 10° NNW 06:47:08 85° WSW 06:52:01 10° SSE
Cosmos 2322 Rocket 2.8 06:44:26 10° NW 06:49:44 41° WSW 06:54:59 10° S
S3M 4.0 06:44:16 10° N 06:50:31 88° W 06:56:39 10° S
Cosmos 1553 Rocket 4.4 06:47:03 10° NNW 06:53:02 44° W 06:59:02 10° SSW
USA 229 4.4 06:48:08 10° NW 06:55:19 61° NE 07:03:18 10° ESE
USA 229 DEB 4.4 06:48:13 10° NW 06:55:25 61° NE 07:03:23 10° ESE
Cosmos 2322 4.3 06:49:58 10° NNW 06:55:35 59° ENE 07:01:09 10° SE
SJ-12 3.7 06:54:07 10° N 06:57:52 61° WNW 07:01:38 10° SSW
SKYMED 3 4.4 06:54:38 10° SSE 06:58:39 89° WSW 07:02:41 10° NNW
Resurs 01 Rocket 4.4 06:56:24 10° NE 06:59:43 21° E 07:03:01 10° SE
YAOGAN 1 3.8 06:56:43 10° NNE 07:00:50 45° E 07:04:55 10° S
